Terug naar catalogus

STARLINK-5016

ActiefCommunicatieVLEO
NORAD 56143·PAYLOAD·🇺🇸 United States

Gelanceerd Mar 29, 2023 vanaf Cape Canaveral Space Force Station

Loading…

Volgende Passages (komende 24 uur)

TLE

VersSource: CelesTrak SupGP

Epoch: Sep 15, 2026, 02:48 UTC

1 56143C 23046BC  26258.11715278  .00043711  00000+0  19466-2 0  2580
2 56143  42.9971 173.3311 0005774 177.6097 105.1587 15.20628462    16

Volg STARLINK-5016 in realtime met AllMySat

Download on the App Store